Regional Weather Roundup
Issued by NWS

Home | Current Version | Previous Version | Graphics & Text | Print | Product List | Glossary On
Versions: 1 2 3 4 5 6 7 8 9 10 11 12 13 14 15 16 17 18 19 20 21 22 23 24 25 26 27 28 29 30 31 32 33 34 35 36 37 38 39 40 41 42 43 44 45 46 47 48 49 50
422
ASUS45 KBOU 121407
RWRCO

WEATHER ROUNDUP FOR COLORADO
NATIONAL WEATHER SERVICE DENVER/BOULDER CO
700 AM MST FRI FEB 12 2016

NOTE: "FAIR" INDICATES FEW OR NO CLOUDS BELOW 12000 FEET WITH NO
SIGNIFICANT WEATHER AND/OR OBSTRUCTIONS TO VISIBILITY.

COZ001>005-013-030-031-121500-
...NORTHWEST COLORADO...

CITY           SKY/WX    TMP DP  RH WIND       PRES   REMARKS
CRAIG          FAIR       2   0  91 CALM      30.43R
HAYDEN         FAIR      21  12  68 E13       30.41S WCI   9
MEEKER         FAIR      15   9  76 CALM      30.42S
MOUNT WERNER   NOT AVBL
STEAMBOAT SPGS CLOUDY    14  11  90 CALM      30.43S
WALDEN         CLOUDY    32  14  47 S8        30.39F WCI  25
$$

COZ006>008-011-121500-
...WEST CENTRAL VALLEYS...

CITY           SKY/WX    TMP DP  RH WIND       PRES   REMARKS
GRAND JUNCTION FAIR      25  21  85 E8        30.44R WCI  16
MONTROSE       FAIR      24  16  71 S7        30.47R WCI  16
EAGLE          PTCLDY    12  10  92 CALM      30.51S
RIFLE          FAIR      17  11  77 CALM      30.47R
DELTA          FAIR      27  23  85 CALM      30.46S
NUCLA          NOT AVBL
$$

COZ017>023-064>068-121500-
...SOUTHWEST COLORADO...

CITY           SKY/WX    TMP DP  RH WIND       PRES   REMARKS
DURANGO        CLOUDY    21  16  81 N3        30.42S
CORTEZ         CLOUDY    19  15  84 E8        30.43R WCI   9
PAGOSA SPRINGS CLOUDY    22  14  71 CALM      30.44S
TELLURIDE      CLOUDY    31  13  47 SE6       30.50R WCI  26
WOLF CREEK PAS CLOUDY    30  14  51 NW7       30.59R WCI  23
$$

COZ009-010-012-014-032>034-037-058>063-121500-
...CENTRAL COLORADO...

CITY           SKY/WX    TMP DP  RH WIND       PRES   REMARKS
ASPEN          CLOUDY    19  12  74 S9        30.44R WCI   8
BUENA VISTA    CLOUDY    25  17  71 CALM      30.43R
COPPER MTN     CLOUDY    30  14  51 W15G24    30.51R WCI  19
BERTHOUD PASS  FAIR      21  12  68 NW40G47   30.44R WCI   1
COTTONWOOD PAS CLOUDY    36  12  38 SE5       30.45R
GUNNISON       CLOUDY    -8 N/A N/A CALM      30.58S
KREMMLING      CLOUDY    -2  -8  78 CALM      30.51R
LEADVILLE      CLOUDY    21  14  74 E6        30.45R WCI  13
MONARCH PASS   CLOUDY    23   7  50 W30       30.61R WCI   5
SALIDA         NOT AVBL
SUNLIGHT       CLOUDY    32  12  43 CALM        N/A
WILKERSON PASS CLOUDY    30  16  55 SW6       30.50R WCI  24
$$

COZ069>075-121500-
...SAN LUIS VALLEY/SANGRE DE CRISTO MOUNTAINS...

CITY           SKY/WX    TMP DP  RH WIND       PRES   REMARKS
ALAMOSA        CLOUDY    17  13  84 CALM      30.44S
LA VETA PASS   CLOUDY    32  10  40 MISG      30.45R
SAGUACHE       NOT AVBL
$$

COZ035-036-038>040-121500-
...NORTHERN COLORADO FRONT RANGE...

CITY           SKY/WX    TMP DP  RH WIND       PRES   REMARKS
DENVER INTL AP CLOUDY    33  24  69 SW7       30.27R WCI  27
DMNS CITY PARK   N/A     33  25  71 MISG      30.28R
AURORA         MOCLDY    31  25  78 NE3       30.28R
FRONT RANGE AP NOT AVBL
ERIE MUNI ARPT CLOUDY    28  26  93 CALM      30.29R
BOULDER MUN AP CLOUDY    34  27  75 S3        30.28R
CENTENNIAL     CLOUDY    33  25  72 E8        30.27R WCI  26
BROOMFIELD     MOCLDY    36  27  69 NW7       30.27S
FORT COLLINS   CLOUDY    34  25  69 N7        30.29S WCI  28
LONGMONT       CLOUDY    30  26  84 CALM      30.31R
$$

COZ041-046-047-076>085-087-088-121500-
...PIKES PEAK/PALMER DIVIDE AND SOUTHERN FOOTHILLS...

CITY           SKY/WX    TMP DP  RH WIND       PRES   REMARKS
COLO. SPRINGS  CLOUDY    34  22  61 NE6       30.32F WCI  29
A. F. ACADEMY  CLOUDY    27  22  81 N10       30.31F WCI  18
SCHRIEVER AFB  PTSUNNY   35  22  58 S6        30.32S WCI  30
ELLICOTT       CLOUDY   N/A N/A N/A CALM      30.31S
FALCON         CLOUDY    33  21  60 SW5       30.33S WCI  29
FORT CARSON    PTCLDY    31  24  73 N9        30.30S WCI  23
LIMON          CLOUDY    18  16  92 CALM      30.31R
MONUMENT HILL  CLOUDY    36  21  55 SW10      30.32S
TRINIDAD       CLOUDY    35  21  56 W14       30.33R WCI  26
$$

COZ042>045-048>051-090-091-121500-
...NORTHEAST COLORADO...

CITY           SKY/WX    TMP DP  RH WIND       PRES   REMARKS
GREELEY ARPT   CLOUDY    28  27  93 CALM      30.30R
AKRON          CLOUDY    37  25  61 SW6       30.29R
BURLINGTON     CLOUDY    30  25  81 W8        30.31R WCI  22
WRAY           NOT AVBL
STERLING       CLOUDY    28  27  93 CALM      30.30R
HOLYOKE        CLOUDY    34  30  86 W8        30.31R WCI  27
FORT MORGAN    CLOUDY    29  26  86 CALM      30.30R
$$

COZ086-089-092>099-121500-
...SOUTHEAST COLORADO...

CITY           SKY/WX    TMP DP  RH WIND       PRES   REMARKS
PUEBLO         CLOUDY    26  21  81 CALM      30.31S
LA JUNTA       CLOUDY    32  25  75 W8        30.33R WCI  25
LAMAR          CLOUDY    25  23  92 CALM      30.32R
SPRINGFIELD      N/A     24  21  88 W7        30.33R WCI  16
$$




USA.gov is the U.S. government's official web portal to all federal, state and local government web resources and services.